FENGYUN 1C DEB, 31031

Orbit data source: Space-Track

FENGYUN 1C DEB, 31031 is space debris in SSO originally from a launch on Mon, 10 May 1999 UTC launched from the Taiyaun Space Center, China (TSC). Fengyun 1C debris stems from the Chinese weather satellite Fengyun-1C, which was intentionally destroyed by a Chinese anti-satellite missile in 2007. This event dramatically increased the amount of space debris, with thousands of trackable fragments posing hazards to satellites and human spaceflight. The Fengyun 1C debris cloud has become a focal point in discussions about space sustainability and the need for international regulations to prevent the creation of new debris.

Loading next visibility...
Identifier
31031, 1999-025BDZ
Orbit
SSO
Country
Flag of CNCN / PRC
Related business
Manufacturer
Unknown
Mission
Spacecraft
Bus & Motor
Unknown
Mass
Unknown
Launch date (UTC)
1999-05-10 (27 years ago)
Launch vehicle
Unknown
Launch site
Taiyaun Space Center, China (TSC)
Object type
Payload
Rocket body
Debris
Shape & HBR
Unknown shape, 0.1 m
Radar Cross Section
Small (<0.1 m²)

Expand to show TLE details & history
Last TLE update: 15 hours ago

TLE from 15 hours ago
0 FENGYUN 1C DEB
1 31031U 99025BDZ 26169.28359124  .00000564  00000-0  27881-3 0  9995
2 31031  99.0753  96.4660 0028954  14.7137 138.4459 14.21331517995189
Epoch: 2026-06-18T06:48Z
TLE epoch observation values (Epoch: 2026-06-18T06:48:22.283Z)
Latitude
26.29759°
Longitude
-87.65253°
Altitude
839.665 km
Speed
7.427 km/s
True Right ascension
18h 43m 52s
True Declination
26° 09' 46"
Sunlit
Object was in full shadow at epoch
Visualization orbit readout
Latitude
Unknown
Longitude
Unknown
Altitude
Unknown
Speed
Unknown
Apparent Right ascension
Unknown
Apparent Declination
Unknown
Sunlit
N/A
Visualization observer readout
Local Sidereal Time
08:53:30
Azimuth
Unknown
Elevation
Unknown
Doppler factor
Unknown
Orbital elements
Apogee altitude
838.864 km
Perigee altitude
797.192 km
Semi-major axis
7,196.165 km
Eccentricity
0.0029
Inclination
99.0753°
RAAN
96.466°
Arg. of periapsis
14.7137°
True anomaly
138.66539°
Mean anomaly
138.4459°
Eccentric anomaly
138.5557°
Mean motion
3.55542 °/min
Orbital period
101.25 mins
BSTAR
0.00027881
Loading maneuver chart data...
Computing Atmospheric mass density...
Loading historical data...
Loading historical data...
Loading historical data...
Loading historical data...
Loading historical data...
Loading historical data...
Loading historical data...

Documentation

Showing up to 5 results
|